Location: Ellerstadt
(49.4644°N, 8.2615°E)
Time: 05:15:20
(UTC+00:00)

Cosmos 2219 Rocket - Pass Details

Date: 03 March 2021
Orbit: 827 x 848 km, 71.0° (Epoch: 11 April)

Event Time Altitude Azimuth Distance (km) Brightness Sun altitude
Rises 21:09:19 0° 243° (WSW) 3,363 5.6 -36.8°
Reaches altitude 10° 21:12:03 10° 255° (WSW) 2,436 4.9 -37.1°
Maximum altitude 21:16:52 29° 314° (NW) 1,490 3.9 -37.7°
Drops below altitude 10° 21:21:44 10° 14° (NNE) 2,458 4.9 -38.3°
Sets 21:24:32 0° 26° (NNE) 3,399 5.6 -38.6°
